Back to catalog

STARLINK-3140

AliveCommunicationsVLEO
NORAD 49460·PAYLOAD·🇺🇸 United States

Launched Nov 13, 2021 from Cape Canaveral Space Force Station

Loading…

Next Passes (next 24 hours)

TLE

FreshSource: CelesTrak SupGP

Epoch: Sep 14, 2026, 13:46 UTC

1 49460C 21104BE  26257.57409722 -.00007897  00000+0 -23339-3 0  2571
2 49460  53.1588  79.0755 0001437  96.8302  75.8840 15.34386256    17

Track STARLINK-3140 in real time with AllMySat

Download on the App Store